This demonstration page uses our WeatherBlox Daily Observations layout. Learn more.

Left ArrowRight Arrow

47.50024, -111.30081

Hourly Observations for November 2, 2015

Temp ( °F °C ) Dew Point ( °F °C ) Humidity (%) Winds ( mph kmh ) Pressure ( in mb ) Visibility ( mi km ) Precip ( " mm )
12:53 am 00:53 Clear 41 5 25 -3.9 53 53 SSW 13 20 29.78 1009 10 16 0.00 0.00
1:53 am 01:53 Clear 37 2.8 24 -4.4 59 59 SSW 17 28 29.79 1009 10 16 0.00 0.00
2:53 am 02:53 Clear 39 3.9 24 -4.4 55 55 SSW 14 22 29.81 1010 10 16 0.00 0.00
3:53 am 03:53 Clear 35 1.7 23 -5 61 61 SSW 7 11 29.84 1011 10 16 0.00 0.00
4:53 am 04:53 Clear 37 2.8 24 -4.4 59 59 SW 15 24 29.86 1011 10 16 0.00 0.00
5:53 am 05:53 Clear 35 1.7 24 -4.4 64 64 SSW 12 19 29.88 1012 10 16 0.00 0.00
6:53 am 06:53 Clear 36 2.2 25 -3.9 64 64 SSW 13 20 29.88 1012 10 16 0.00 0.00
7:53 am 07:53 Sunny 37 2.8 26 -3.3 65 65 SW 10 17 29.89 1012 10 16 0.00 0.00
8:53 am 08:53 Sunny 42 5.6 27 -2.8 55 55 SSW 8 13 29.89 1012 10 16 0.00 0.00
9:53 am 09:53 Sunny 46 7.8 28 -2.2 50 50 SW 12 19 29.86 1011 10 16 0.00 0.00
11:53 am 11:53 Sunny 50 10 27 -2.8 41 41 SW 15 24 29.85 1011 10 16 0.00 0.00
12:53 pm 12:53 Sunny 50 10 27 -2.8 41 41 WSW 12 19 29.82 1010 10 16 0.00 0.00
1:53 pm 13:53 Sunny 50 10 26 -3.3 39 39 SW 13 20 29.81 1010 10 16 0.00 0.00
2:53 pm 14:53 Sunny 49 9.4 26 -3.3 41 41 WSW 6 9 29.81 1009 10 16 0.00 0.00
3:53 pm 15:53 Sunny 48 8.9 27 -2.8 44 44 WSW 3 6 29.83 1010 10 16 0.00 0.00
4:53 pm 16:53 Sunny 46 7.8 27 -2.8 47 47 Calm 29.83 1010 10 16 0.00 0.00
5:53 pm 17:53 Clear 42 5.6 28 -2.2 58 58 Calm 29.84 1010 10 16 0.00 0.00
6:53 pm 18:53 Clear 41 5 27 -2.8 57 57 Calm 29.83 1010 10 16 0.00 0.00
7:53 pm 19:53 Mostly Clear 38 3.3 28 -2.2 68 68 SE 5 7 29.84 1011 10 16 0.00 0.00
8:53 pm 20:53 Partly Cloudy 39 3.9 27 -2.8 62 62 Calm 29.82 1010 10 16 0.00 0.00
9:53 pm 21:53 Cloudy 39 3.9 29 -1.7 67 67 Calm 29.80 1009 10 16 0.00 0.00
10:53 pm 22:53 Partly Cloudy 35 1.7 27 -2.8 72 72 WNW 5 7 29.81 1009 10 16 0.00 0.00
11:53 pm 23:53 Clear 35 1.7 27 -2.8 72 72 WSW 7 11 29.79 1009 10 16 0.00 0.00

Powered by AerisWeather